Boerne Stage Field, TX

11:41 PM CST on December 07, 2019 (GMT -0600)
Boerne Stage Field

Weather History for K5C1 - October, 2019

Change the Weather History Date:

Saturday, October 26, 2019

  Actual Average (KSAT) Record (KSAT)
Temperature  
Mean Temperature 55 °F 68 °F  
Max Temperature 69 °F 79 °F 91 °F (1987)
Min Temperature 41 °F 57 °F 38 °F (1955)
Degree Days  
Heating Degree Days 10 2  
Month to date heating degree days 18  
Since 1 July heating degree days 20  
Cooling Degree Days 0 5  
Month to date cooling degree days 196  
Year to date cooling degree days 3030  
Growing Degree Days 5 (Base 50)    
Moisture  
Dew Point 31 °F    
Average Humidity 49    
Maximum Humidity 76    
Minimum Humidity 18    
Precipitation  
Precipitation 0.00 in 0.12 in 1.81 in (2009)
Month to date precipitation 3.55  
Year to date precipitation 27.52  
Snow  
Snow 0.00 in - - ()
Month to date snowfall  
Since 1 July snowfall  
Since 1 September snowfall  
Snow Depth -    
Sea Level Pressure  
Sea Level Pressure 29.98 in    
Wind  
Wind Speed 4 mph (WNW)    
Max Wind Speed 12 mph    
Max Gust Speed 21 mph    
Visibility 10 miles    
Events      
T = Trace of Precipitation, MM = Missing Value Source: NWS Daily Summary

Daily Weather History Graph

Daily Weather History Graph

Search for Another Location

Airport or City:

Astronomy

Oct. 26, 2019 Rise Set
Actual Time 7:43 AM CDT 6:53 PM CDT
Civil Twilight 7:19 AM CDT 7:17 PM CDT
Nautical Twilight 6:51 AM CDT 7:45 PM CDT
Astronomical Twilight 6:23 AM CDT 8:13 PM CDT
Moon 5:55 AM CDT (10/26) 6:18 PM CDT (10/26)
Length of Visible Light 11h 58m
Length of Day
11h 09m
Waning Crescent, 3% of the Moon is Illuminated
Oct 26
Waning Crescent
Oct 27
New
Nov 4
First Quarter
Nov 12
Full
Nov 19
Last Quarter

Hourly Weather History & Observations

Time (CDT) Temp. Windchill Dew Point Humidity Pressure Visibility Wind Dir Wind Speed Gust Speed Precip Events Conditions
12:15 AM 46.4 °F 41.5 °F 33.8 °F 62% 30.07 in 10.0 mi NNW 10.4 mph 20.7 mph N/A   Clear
12:35 AM 46.4 °F 41.1 °F 33.8 °F 62% 30.06 in 10.0 mi North 11.5 mph 20.7 mph N/A   Clear
12:55 AM 46.4 °F 41.9 °F 33.8 °F 62% 30.06 in 10.0 mi NNW 9.2 mph 16.1 mph N/A   Clear
1:15 AM 44.6 °F - 33.8 °F 66% 30.06 in 10.0 mi Calm Calm - N/A   Clear
1:55 AM 44.6 °F - 33.8 °F 66% 30.05 in 10.0 mi Calm Calm - N/A   Clear
2:15 AM 44.6 °F 43.1 °F 33.8 °F 66% 30.05 in 10.0 mi NW 3.5 mph - N/A   Clear
2:35 AM 44.6 °F 40.7 °F 33.8 °F 66% 30.04 in 10.0 mi NW 6.9 mph - N/A   Clear
2:55 AM 44.6 °F 41.4 °F 33.8 °F 66% 30.04 in 10.0 mi NNW 5.8 mph - N/A   Clear
3:15 AM 42.8 °F 38.6 °F 33.8 °F 70% 30.03 in 10.0 mi NNW 6.9 mph - N/A   Clear
3:35 AM 42.8 °F 37.0 °F 32.0 °F 66% 30.03 in 10.0 mi NNW 10.4 mph 17.3 mph N/A   Clear
3:55 AM 42.8 °F - 32.0 °F 66% 30.02 in 10.0 mi Calm Calm - N/A   Clear
4:15 AM 42.8 °F 39.3 °F 32.0 °F 66% 30.01 in 10.0 mi NNW 5.8 mph - N/A   Clear
4:35 AM 42.8 °F - 32.0 °F 66% 30.01 in 10.0 mi Calm Calm - N/A   Clear
4:55 AM 42.8 °F - 32.0 °F 66% 30.01 in 10.0 mi Calm Calm - N/A   Clear
5:15 AM 42.8 °F - 32.0 °F 66% 30.01 in 10.0 mi Calm Calm - N/A   Clear
5:35 AM 42.8 °F - 32.0 °F 66% 30.01 in 10.0 mi Calm Calm - N/A   Clear
5:55 AM 41.0 °F - 32.0 °F 70% 30.01 in 10.0 mi Calm Calm - N/A   Clear
6:15 AM 42.8 °F - 32.0 °F 66% 30.01 in 10.0 mi Calm Calm - N/A   Clear
6:35 AM 42.8 °F - 32.0 °F 66% 30.00 in 10.0 mi Calm Calm - N/A   Clear
6:55 AM 42.8 °F 39.3 °F 30.2 °F 61% 29.99 in 10.0 mi NNW 5.8 mph - N/A   Clear
7:15 AM 42.8 °F - 30.2 °F 61% 29.99 in 10.0 mi Calm Calm - N/A   Clear
7:35 AM 42.8 °F 38.6 °F 30.2 °F 61% 30.00 in 10.0 mi North 6.9 mph - N/A   Clear
7:55 AM 42.8 °F 40.1 °F 30.2 °F 61% 30.00 in 10.0 mi NNW 4.6 mph - N/A   Clear
8:15 AM 42.8 °F - 28.4 °F 57% 30.01 in 10.0 mi Calm Calm - N/A   Clear
8:35 AM 44.6 °F - 30.2 °F 57% 30.01 in 10.0 mi Calm Calm - N/A   Clear
8:55 AM 46.4 °F - 30.2 °F 53% 30.02 in 10.0 mi Calm Calm - N/A   Clear
9:15 AM 46.4 °F 41.5 °F 28.4 °F 50% 30.02 in 10.0 mi NNW 10.4 mph - N/A   Clear
9:35 AM 50.0 °F - 28.4 °F 43% 30.02 in 10.0 mi NNW 5.8 mph 17.3 mph N/A   Clear
9:55 AM 51.8 °F - 28.4 °F 41% 30.02 in 10.0 mi Calm Calm - N/A   Clear
10:15 AM 53.6 °F - 30.2 °F 41% 30.03 in 10.0 mi NNW 8.1 mph - N/A   Clear
10:35 AM 53.6 °F - 32.0 °F 44% 30.02 in 10.0 mi Calm Calm - N/A   Clear
10:55 AM 55.4 °F - 32.0 °F 41% 30.02 in 10.0 mi North 9.2 mph - N/A   Clear
11:15 AM 55.4 °F - 33.8 °F 44% 30.02 in 10.0 mi Calm Calm - N/A   Clear
11:35 AM 57.2 °F - 33.8 °F 41% 30.03 in 10.0 mi NNW 4.6 mph - N/A   Clear
11:55 AM 59.0 °F - 32.0 °F 36% 30.02 in 10.0 mi Calm Calm - N/A   Clear
12:15 PM 60.8 °F - 30.2 °F 31% 30.01 in 10.0 mi North 4.6 mph - N/A   Clear
12:35 PM 62.6 °F - 28.4 °F 27% 30.01 in 10.0 mi Calm Calm - N/A   Clear
12:55 PM 62.6 °F - 30.2 °F 30% 30.00 in 10.0 mi Calm Calm - N/A   Clear
1:15 PM 64.4 °F - 30.2 °F 28% 29.99 in 10.0 mi Calm Calm - N/A   Clear
1:35 PM 64.4 °F - 28.4 °F 26% 29.98 in 10.0 mi WNW 5.8 mph - N/A   Clear
1:55 PM 64.4 °F - 26.6 °F 24% 29.96 in 10.0 mi Calm Calm - N/A   Clear
2:15 PM 66.2 °F - 23.0 °F 19% 29.95 in 10.0 mi WNW 3.5 mph - N/A   Clear
2:35 PM 68.0 °F - 23.0 °F 18% 29.94 in 10.0 mi Calm Calm - N/A   Clear
2:55 PM 68.0 °F - 23.0 °F 18% 29.93 in 10.0 mi Calm Calm - N/A   Clear
3:15 PM 68.0 °F - 26.6 °F 21% 29.93 in 10.0 mi Calm Calm - N/A   Clear
3:35 PM 69.8 °F - 26.6 °F 20% 29.92 in 10.0 mi Calm Calm - N/A   Clear
3:55 PM 69.8 °F - 26.6 °F 20% 29.92 in 10.0 mi WSW 8.1 mph - N/A   Clear
4:15 PM 69.8 °F - 24.8 °F 18% 29.92 in 10.0 mi West 4.6 mph - N/A   Clear
4:35 PM 69.8 °F - 26.6 °F 20% 29.91 in 10.0 mi West 5.8 mph - N/A   Clear
4:55 PM 69.8 °F - 26.6 °F 20% 29.91 in 10.0 mi WSW 4.6 mph - N/A   Clear
5:15 PM 69.8 °F - 26.6 °F 20% 29.90 in 10.0 mi West 3.5 mph - N/A   Clear
5:35 PM 69.8 °F - 28.4 °F 21% 29.90 in 10.0 mi SW 4.6 mph - N/A   Clear
5:55 PM 68.0 °F - 28.4 °F 23% 29.90 in 10.0 mi SSW 4.6 mph - N/A   Clear
6:15 PM 68.0 °F - 30.2 °F 24% 29.89 in 10.0 mi SSW 3.5 mph - N/A   Clear
6:35 PM 64.4 °F - 32.0 °F 30% 29.89 in 10.0 mi SSW 3.5 mph - N/A   Clear
6:55 PM 60.8 °F - 32.0 °F 34% 29.89 in 10.0 mi SSW 3.5 mph - N/A   Clear
7:15 PM 57.2 °F - 35.6 °F 44% 29.90 in 10.0 mi South 4.6 mph - N/A   Clear
7:35 PM 55.4 °F - 35.6 °F 47% 29.90 in 10.0 mi SSW 3.5 mph - N/A   Clear
8:15 PM 51.8 °F - 35.6 °F 54% 29.90 in 10.0 mi Calm Calm - N/A   Clear
8:35 PM 51.8 °F - 35.6 °F 54% 29.90 in 10.0 mi Calm Calm - N/A   Clear
8:55 PM 50.0 °F - 35.6 °F 58% 29.91 in 10.0 mi Calm Calm - N/A   Clear
9:15 PM 48.2 °F - 35.6 °F 62% 29.91 in 10.0 mi Calm Calm - N/A   Clear
9:35 PM 46.4 °F - 35.6 °F 66% 29.91 in 10.0 mi Calm Calm - N/A   Clear
9:55 PM 46.4 °F - 35.6 °F 66% 29.91 in 10.0 mi Calm Calm - N/A   Clear
10:15 PM 44.6 °F - 35.6 °F 71% 29.92 in 10.0 mi Calm Calm - N/A   Clear
10:35 PM 44.6 °F - 35.6 °F 71% 29.92 in 10.0 mi Calm Calm - N/A   Clear
10:55 PM 42.8 °F - 35.6 °F 76% 29.93 in 10.0 mi Calm Calm - N/A   Clear
11:15 PM 42.8 °F - 35.6 °F 76% 29.93 in 10.0 mi Calm Calm - N/A   Clear
11:35 PM 42.8 °F - 33.8 °F 70% 29.93 in 10.0 mi Calm Calm - N/A   Clear
11:55 PM 42.8 °F - 33.8 °F 70% 29.93 in 10.0 mi Calm Calm - N/A   Clear